OpenBCM V1.08-3-g9b42 (Linux)

Packet Radio Mailbox

OK0NBR

[Sao_Jose_dos_Campo]

 Login: GUEST





  
I0OJJ  > KEPS     16.11.25 22:33l 310 Lines 14714 Bytes #198 (0) @ AMSAT
BID : ORB25321.1
Read: GUEST
Subj: 2Line Orbital Elements 25321.AMSAT
Path: OK0NBR<IW0QNL<HB9ON<DK0WUE<ZL2BAU<VK2RZ<IR0AAB<I0OJJ
Sent: 251117/0021z @:I0OJJ.ITA.EU [Rome] obcm1.08-11-2-gbfe9
From: I0OJJ @ I0OJJ.ITA.EU (Gustavo)
To:   KEPS @ AMSAT
X-Info: This message was generated automatically


QST de W1STR

AMSAT Orbital Elements for Amateur Satellites in TLE Format
From Orbital Analysis Office
New England Sci-Tech STEM Education Center
Natick MA November 17, 2025
To all radio amateurs


These element sets describe the orbits of various satellites 
in use by the amateur radio community. For details see:
www.amsat.org/keplerian-elements-formats/

A daily update of element sets is available at:
www.amsat.org/tle/daily-bulletin.txt
or without bulletin text:
www.amsat.org/tle/dailytle.txt


AO-07
1 07530U 74089B   25320.49528757 -.00000020  00000-0  16588-3 0  9996
2 07530 101.9977 326.4861 0012203 176.1272 307.0145 12.53693453333869
UO-11
1 14781U 84021B   25320.33543858  .00002699  00000-0  28536-3 0  9990
2 14781  97.7769 283.7826 0008111 156.5010 203.6580 14.90018322225422
AO-27
1 22825U 93061C   25320.63603778  .00000282  00000-0  12475-3 0  9994
2 22825  98.7185  22.8370 0008488  11.6192 348.5185 14.30863252676602
FO-29
1 24278U 96046B   25320.59980273  .00000036  00000-0  75382-4 0  9991
2 24278  98.5481 193.2400 0348925 287.9527  68.3871 13.53260580444413
GO-32
1 25397U 98043D   25320.22410217  .00000233  00000-0  12108-3 0  9994
2 25397  98.9899 302.8273 0002295 100.4605 259.6832 14.24366545421012
ISS
1 25544U 98067A   25320.35281829  .00017169  00000-0  31117-3 0  9990
2 25544  51.6328 273.0879 0004159  76.5981 283.5471 15.49717811538761
NO-44
1 26931U 01043C   25320.61198523  .00000505  00000-0  21968-3 0  9995
2 26931  67.0511  74.0438 0007283 271.3399  88.6869 14.31834293260015
SO-50
1 27607U 02058C   25320.62877677  .00002843  00000-0  35838-3 0  9996
2 27607  64.5545  66.2892 0070708 301.4394  57.9811 14.82248607232945
CO-55
1 27844U 03031E   25319.96281374  .00000728  00000-0  33511-3 0  9995
2 27844  98.6774 326.2106 0010695  85.4917 274.7483 14.24146864161321
CO-57
1 27848U 03031J   25319.98665486  .00000610  00000-0  28750-3 0  9990
2 27848  98.6801 326.1172 0010597 101.4604 258.7765 14.23459877161045
RS-22
1 27939U 03042A   25320.83693491  .00002335  00000-0  37277-3 0  9996
2 27939  98.3364 134.3504 0010605 217.8086 253.1833 14.72865510184286
CO-58
1 28895U 05043F   25320.67579025  .00003445  00000-0  55925-3 0  9992
2 28895  98.2705 107.3180 0014857 155.7709 204.4199 14.71752140 70484
CO-65
1 32785U 08021C   25320.87282066  .00010673  00000-0  72350-3 0  9994
2 32785  97.8055 293.6080 0010697  38.4203 321.7784 15.06596072953192
CO-66
1 32791U 08021J   25319.92866082  .00023786  00000-0  98199-3 0  9999
2 32791  97.7425 304.1809 0003683  21.6206 338.5185 15.24023163954716
RS-30
1 32953U 08025A   25320.87697288  .00000060  00000-0  36106-3 0  9999
2 32953  82.4993 127.5097 0019787  56.5893 303.7076 12.43170915793310
SRMSAT
1 37841U 11058D   25320.52986751  .00000585  00000-0  17375-3 0  9997
2 37841  19.9721 266.5849 0011757  25.3704 137.5086 14.11499150727737
ZACUBE-1
1 39417U 13066B   25320.62282135  .00008939  00000-0  73547-3 0  9999
2 39417  97.7994 277.1403 0040764 234.8906 124.8493 14.98700170648868
Delfi-N3xt
1 39428U 13066N   25320.71175757  .00011751  00000-0  11151-2 0  9990
2 39428  97.8318 236.7818 0079304 190.8827 169.0679 14.91306694642910
GOMX-1
1 39430U 13066Q   25320.80512027  .00003143  00000-0  48352-3 0  9998
2 39430  97.6618 169.5525 0131799  39.6902 321.3859 14.68421861638739
LO-74
1 39440U 13066AA  25320.57953903  .00009224  00000-0  89312-3 0  9992
2 39440  97.8658 264.2987 0060744  13.2969 346.9833 14.91562505645272
AO-73
1 39444U 13066AE  25320.66980242  .00012257  00000-0  84482-3 0  9995
2 39444  97.8012 283.6469 0038313 203.0454 156.9055 15.05379007647642
DTUSAT-2
1 40030U 14033W   25320.78388846  .00012412  00000-0  74321-3 0  9992
2 40030  98.0726 300.8050 0006733 231.7458 128.3165 15.11151078620561
EO-80
1 40032U 14033Y   25320.46468821  .00012879  00000-0  76953-3 0  9991
2 40032  98.0615 299.8994 0008095 164.3193 195.8287 15.11209583620495
LILACSAT-2
1 40908U 15049K   25320.88042775  .00022638  00000-0  50253-3 0  9992
2 40908  97.4948 345.4842 0006674 312.9307  47.1380 15.43701837562917
IO-86
1 40931U 15052B   25151.18580175  .00001241  00000-0  78118-4 0  9996
2 40931   6.0006  24.0987 0012733 338.8432  21.1169 14.78805930523159
Horyu-4
1 41340U 16012D   25320.78129895  .00062449  00000-0  11564-2 0  9997
2 41340  30.9930 127.7950 0005475 332.0809  27.9546 15.47689165537522
Lapan A3
1 41603U 16040E   25320.88474138  .00006353  00000-0  21232-3 0  9990
2 41603  97.1425 319.3882 0012479  61.7342 298.5158 15.31271748522303
CAS-2T
1 41847U 16066G   25320.57159227  .00001758  00000-0  25508-3 0  9997
2 41847  98.4070  33.5671 0345041  54.3687 308.9125 14.44049087474104
TechnoSat
1 42829U 17042E   25320.43564830  .00005853  00000-0  43574-3 0  9991
2 42829  97.4038 121.7864 0020587  98.9100 261.4458 15.03131983454722
AO-91
1 43017U 17073E   25320.57515068  .00016445  00000-0  78539-3 0  9997
2 43017  97.4975 187.3767 0162946 340.8626  18.6524 15.08062875433293
S-Net D
1 43186U 18014G   25320.71571612  .00009359  00000-0  51970-3 0  9999
2 43186  97.5486 222.0225 0010216  42.8669 317.3357 15.13903339426584
S-Net B
1 43187U 18014H   25320.72336286  .00009579  00000-0  53209-3 0  9998
2 43187  97.5491 222.0095 0010747  37.9521 322.2465 15.13879200426581
S-Net A
1 43188U 18014J   25320.25285880  .00009806  00000-0  54429-3 0  9998
2 43188  97.5497 221.7153 0010710  40.2829 319.9194 15.13900486426513
S-Net C
1 43189U 18014K   25320.46185354  .00010011  00000-0  55587-3 0  9993
2 43189  97.5517 221.9635 0011924  31.9814 328.2139 15.13868626425096
Ten-Koh
1 43677U 18084G   25320.45824549  .00005591  00000-0  43612-3 0  9990
2 43677  98.0687 139.0275 0009212  99.2804 260.9461 15.01563215384226
PO-101
1 43678U 18084H   25320.82478291  .00003632  00000-0  30281-3 0  9993
2 43678  98.1048 143.2475 0007513 109.8764 250.3268 14.99261283384384
QO-100
1 43700U 18090A   25320.81283490  .00000000  00000-0  00000+0 0  9998
2 43700   0.0184 292.4614 0002340 345.0202  97.0436  1.00270170 25545
MinXSS-2
1 43758U 18099A   25320.65597646  .00034377  00000-0  10828-2 0  9999
2 43758  97.4842  27.6985 0009128 314.2448  45.8043 15.32798818381420
AO-95
1 43770U 18099N   25320.61677332  .00016525  00000-0  74525-3 0  9990
2 43770  97.4722  17.1050 0010239  23.6499 336.5205 15.21049140380840
SNUSat 2
1 43782U 18099AA  25320.42204606  .00014682  00000-0  73142-3 0  9998
2 43782  97.4412  12.2877 0010368 325.7627  34.2937 15.17621938380710
SnugLite
1 43784U 18099AC  25320.61044649  .00017185  00000-0  76733-3 0  9990
2 43784  97.4218  12.4308 0002403 345.6513  14.4654 15.21424061380936
ITASat 1
1 43786U 18099AE  25320.55618302  .00011588  00000-0  61303-3 0  9996
2 43786  97.4376  11.4197 0013929  19.4995 340.6768 15.15523978380663
EAGLET 1
1 43790U 18099AJ  25320.61159346  .00007513  00000-0  45578-3 0  9995
2 43790  97.4573  10.8227 0011697   7.9704 352.1710 15.10760688380216
ESEO
1 43792U 18099AL  25320.52466823  .00002954  00000-0  22153-3 0  9996
2 43792  97.4299   1.7759 0011604 345.8022  14.2876 15.03347746379841
JO-97
1 43803U 18099AX  25320.59073900  .00023169  00000-0  90910-3 0  9993
2 43803  97.4468  18.5100 0005591 311.0742  49.0013 15.25725055381120
Suomi 100
1 43804U 18099AY  25320.63458140  .00018237  00000-0  78992-3 0  9998
2 43804  97.4533  17.3120 0010154 314.4390  45.6015 15.22407895381018
ISAT
1 43879U 18111D   25320.75458438  .00053121  00000-0  13534-2 0  9999
2 43879  97.5894 239.4677 0007722  16.9991 343.1511 15.39347336378242
UWE-4
1 43880U 18111E   25320.72849875  .00034888  00000-0  11001-2 0  9993
2 43880  97.5837 236.5695 0011407  20.0454 340.1234 15.32737408378092
Sparrow
1 43881U 18111F   25320.32051274  .00061543  00000-0  14684-2 0  9996
2 43881  97.6072 242.6193 0008256  50.4730 309.7245 15.41300477378295
Prox-1
1 44339U 19036A   25320.69785681  .00019975  00000-0  22939-2 0  9992
2 44339  23.9961  87.1109 0007685  98.5673 261.5695 14.84248471341796
Taurus 1
1 44530U 19059C   25320.88511627  .00013415  00000-0  23149-2 0  9995
2 44530  98.6216 108.3274 0008899 254.3339 105.6883 14.68565088327440
Duchifat 3
1 44854U 19089C   25320.61760110  .00411402  00000-0  18865-2 0  9998
2 44854  36.9318  41.4242 0008184  91.0554 269.1152 15.81590551327973
TO-108
1 44881U 19093C   25320.84452243  .00002125  00000-0  24870-3 0  9995
2 44881  97.7788  33.0527 0014988  67.7283 292.5520 14.86020296319877
FloripaSat 1
1 44885U 19093G   25320.84519750  .00010995  00000-0  86882-3 0  9991
2 44885  97.8069  48.9222 0012137  54.4112 305.8241 15.00788971320765
RS-44
1 44909U 19096E   25320.43262753  .00000040  00000-0  12377-3 0  9992
2 44909  82.5182 121.0912 0216532 281.8593  75.8301 12.79745524275133
SALSAT
1 46495U 20068K   25320.82729495  .00013835  00000-0  54458-3 0  9991
2 46495  97.8768 306.7175 0009806 336.6326  23.4464 15.25716124282937
CSS (TIANHE-1)
1 48274U 21035A   25320.83099229  .00031216  00000-0  38956-3 0  9997
2 48274  41.4655 173.9137 0006801 176.8969 183.1912 15.59174982259983
TUBIN
1 48900U 21059X   25320.82921866  .00306722  36663-4  10450-2 0  9992
2 48900  97.6677 145.5628 0002153 333.2811  26.8350 15.89787605245188
CUTE
1 49263U 21088D   25320.69120240  .00044116  00000-0  62000-3 0  9996
2 49263  97.4378  42.4136 0005620  17.1050 343.0393 15.56560752229247
TeikyoSat 4
1 49396U 21102B   25320.53416841  .00002857  00000-0  18701-3 0  9993
2 49396  97.3935 353.1169 0010966 309.9015  50.1249 15.08473735220655
Z-Sat
1 49399U 21102E   25320.84146124  .00007691  00000-0  40143-3 0  9990
2 49399  97.3625 357.5657 0015660 267.5910  92.3530 15.16094329221247
